Location: Poughquag
(41.6090°N, 73.6820°W)
Time: 11:19:49
(UTC-04:00)

Tiros 1 despin weight - Pass Details

Date: 30 May 2020
Orbit: 593 x 642 km, 48.2° (Epoch: 07 July)

Event Time Altitude Azimuth Distance (km) Brightness Sun altitude
Rises 12:28:04 0° 256° (WSW) 2,913 ? 69.6°
Reaches altitude 10° 12:30:26 10° 261° (W) 1,999 ? 69.8°
Maximum altitude 12:34:57 55° 339° (NNW) 744 ? 70.0°
Drops below altitude 10° 12:39:25 10° 59° (ENE) 1,973 ? 70.1°
Sets 12:41:45 0° 63° (ENE) 2,871 ? 70.2°
